Location: Penticton
(49.5000°N, 119.5830°W)
Time: 05:15:25
(UTC-07:00)

Daily predictions for brighter satellites

Satellite Brightness Start Highest point End
(mag) Time Altitude Azimuth Time Altitude Azimuth Time Altitude Azimuth
Meteor 2-1 Rocket 4.4 00:02:56 10° N 00:08:53 70° ENE 00:11:51 30° SSE
Cosmos 1850 Rocket 3.9 00:06:44 29° SSW 00:09:29 86° ESE 00:14:45 10° NNE
Cosmos 1470 3.1 00:08:25 10° NNW 00:12:14 54° W 00:13:19 39° SSW
NOSS 3-3 (A) 4.5 00:05:27 10° NW 00:12:46 83° NE 00:18:35 20° SE
NOSS 3-3 (C) 4.5 00:05:34 10° NW 00:12:53 83° NE 00:18:44 20° SE
CZ-2C R/B 4.2 00:09:50 10° NE 00:14:09 23° E 00:16:17 18° ESE
Cosmos 1689 Rocket 2.3 00:13:55 56° ESE 00:14:19 64° ENE 00:17:31 10° N
Cosmos 374 Rocket 4.5 00:11:07 21° SW 00:14:24 87° SE 00:18:22 10° NE
SL-23 DEB 3.5 00:14:03 10° SW 00:18:19 60° SSE 00:21:28 10° ENE
S3M 4.2 00:12:50 10° N 00:19:05 66° ENE 00:22:20 29° SSE
Cosmos 1953 4.5 00:17:06 10° NW 00:19:47 18° W 00:21:37 13° WSW
Helios 1A Rocket 3.7 00:16:04 10° NNE 00:19:51 35° E 00:20:36 32° ESE
Cosmos 2369 4.1 00:19:02 10° NNW 00:24:40 60° ENE 00:28:07 23° SE
COSMOS 2487 2.4 00:24:27 59° S 00:25:05 83° ESE 00:28:43 10° NNE
NOSS 3-2 (C) 4.3 00:23:13 29° SSE 00:25:09 35° ESE 00:31:05 10° NE
CZ-4C R/B 2.9 00:25:10 31° SSE 00:26:33 35° ESE 00:31:57 10° NE
Cosmos 1655 Rocket 4.0 00:23:25 31° S 00:26:39 80° E 00:32:56 10° NNE
Lacrosse 5 rocket 3.4 00:24:20 10° WNW 00:28:03 30° N 00:31:54 10° ENE
Cosmos 468 Rocket 4.0 00:23:55 10° NNW 00:29:15 85° ENE 00:31:34 35° SSE
Cosmos 1766 Rocket 3.8 00:31:25 41° SSE 00:32:45 60° E 00:37:12 10° NNE
Cosmos 1140 Rocket 4.2 00:29:14 18° SW 00:32:59 52° WNW 00:38:08 10° NNE
Cosmos 1814 Rocket 4.0 00:29:16 10° NNW 00:34:34 84° ENE 00:36:58 34° SSE
Cosmos 1340 3.2 00:34:40 36° SW 00:35:51 51° WNW 00:39:35 10° N
Meteor 1-16 Rocket 4.3 00:30:28 10° NNW 00:35:59 66° W 00:38:32 33° SSW
Cosmos 405 Rocket 3.3 00:35:29 39° ESE 00:36:06 42° E 00:39:43 10° NNE
Cosmos 1328 Rocket 4.0 00:35:50 10° N 00:40:08 54° ENE 00:41:40 35° SE
H-2A R/B 2.3 00:38:05 10° NNE 00:41:58 76° WNW 00:42:59 47° SSW
Cosmos 2221 3.1 00:39:58 10° NNW 00:44:09 47° W 00:45:24 36° SW
Landsat 5 3.5 00:44:43 46° SSW 00:45:35 60° WSW 00:49:35 10° NNW
Cosmos 2278 3.6 00:42:10 10° NNW 00:47:52 86° WSW 00:50:34 33° SSE
Cosmos 1076 Rocket 3.4 00:48:03 46° SSW 00:49:17 86° W 00:53:34 10° N
Cosmos 1818 3.5 00:43:57 10° NW 00:49:28 80° SW 00:52:03 32° SSE
Cosmos 2228 Rocket 3.0 00:45:04 10° N 00:49:31 86° E 00:50:53 44° SSE
COSMOS 2406 3.9 00:45:11 16° SW 00:49:40 53° NW 00:55:19 10° NNE
Cosmos 1980 Rocket 3.8 00:44:56 10° NNW 00:49:53 30° NE 00:54:49 10° ESE
Cosmos 1515 Rocket 4.0 00:46:54 10° N 00:51:18 56° ENE 00:52:57 34° SE
Cosmos 1486 Rocket 4.4 00:49:57 35° SSE 00:51:41 49° ESE 00:56:43 10° NNE
ISS -2.8 00:49:32 10° W 00:52:47 60° N 00:56:01 10° ENE
Lacrosse 4 Rocket 3.9 00:51:04 10° W 00:54:03 19° NW 00:57:05 10° N
Cosmos 1707 3.9 00:57:09 27° WSW 00:58:33 35° WNW 01:02:13 10° N
Cosmos 2026 Rocket 4.2 00:55:16 27° SSW 00:58:35 61° WNW 01:04:36 10° N
CZ-4B R/B 2.5 00:58:25 33° WSW 00:58:54 34° W 01:02:19 10° NNW
ATLAS 3B R/B 4.1 00:59:49 10° W 01:07:01 42° NNW 01:13:56 10° NE
NOSS 3-2 (A) 3.5 01:06:35 29° SSW 01:09:55 74° SE 01:16:43 10° NE
Cosmos 1697 Rocket 3.2 01:05:38 10° NNW 01:11:16 58° ENE 01:15:37 17° SE
Cosmos 1763 Rocket 3.5 01:06:46 10° NNW 01:12:08 86° WSW 01:14:32 34° SSE
Cosmos 2082 Rocket 3.0 01:10:40 28° SSE 01:12:43 38° ESE 01:17:55 10° NE
Cosmos 1607 4.3 01:08:14 15° SW 01:13:24 64° NW 01:19:35 10° NE
MOS 1-B Rocket 4.4 01:13:53 26° SSE 01:18:37 88° WSW 01:25:16 10° NNW
ALOS 2 4.0 01:17:36 23° WSW 01:18:42 25° W 01:22:23 10° NW
Cosmos 540 Rocket 4.5 01:13:51 10° NNW 01:18:48 42° ENE 01:23:04 13° SE
BREEZE-M DEB (TANK) 2.1 01:18:25 50° W 01:19:01 83° S 01:23:52 10° E
PSLV R/B 4.0 01:22:12 40° SSE 01:23:41 79° ENE 01:27:53 10° NNW
Cosmos 1833 Rocket 3.6 01:21:45 26° SSE 01:23:57 36° ESE 01:29:03 10° NE
Meteor 1-24 Rocket 4.4 01:22:50 25° SW 01:26:12 50° WNW 01:31:58 10° N
Cosmos 1867 3.8 01:25:38 35° S 01:27:39 54° ESE 01:33:00 10° NE
Aureole 1 Rocket 3.8 01:24:31 10° NNW 01:28:43 57° ENE 01:32:32 19° SE
Cosmos 1726 4.3 01:29:03 10° NNE 01:31:54 21° ENE 01:34:21 12° ESE
Cosmos 1674 3.2 01:31:57 38° SE 01:32:52 47° E 01:36:30 10° NNE
USA 215 4.5 01:30:40 10° ENE 01:35:48 24° SE 01:37:56 20° SSE
Cosmos 1354 Rocket 4.1 01:35:12 34° S 01:37:27 65° ESE 01:42:43 10° NNE
USA 32 4.3 01:32:38 10° N 01:37:52 63° E 01:40:44 27° SSE
CZ-2C R/B 3.2 01:36:25 31° S 01:39:12 82° WSW 01:44:59 10° NNW
Cosmos 1378 4.4 01:38:15 27° WSW 01:39:23 33° WNW 01:42:52 10° N
Lacrosse 5 1.8 01:35:53 10° NW 01:40:59 87° NNE 01:46:03 10° SE
Cosmos 1503 Rocket 4.1 01:42:11 34° S 01:44:32 71° ESE 01:49:51 10° NNE
BREEZE-M TANK 3.9 01:37:13 10° SW 01:46:42 34° S 01:49:58 10° ESE
Cosmos 1656 3.7 01:41:27 10° NNW 01:47:08 67° WSW 01:50:03 29° S
SL-16 R/B 3.8 01:45:10 10° NNW 01:50:20 34° NE 01:55:27 10° ESE
Cosmos 841 Rocket 3.9 01:45:36 10° NNW 01:50:38 47° WSW 01:52:34 32° SSW
Cosmos 1151 Rocket 3.1 01:48:43 10° NNW 01:52:57 61° W 01:54:18 39° SSW
Cosmos 2315 Rocket 4.0 01:48:18 10° NNW 01:54:38 71° W 01:58:05 28° S
CZ-2C R/B 2.9 01:49:21 10° N 01:54:54 64° WNW 01:57:48 28° SW
Meteor 1-21 Rocket 4.4 01:55:17 29° SSW 01:58:16 64° WNW 02:03:56 10° N
Cosmos 724 4.4 01:57:13 30° SSW 02:00:04 64° ESE 02:05:55 10° NE
Cosmos 2058 3.5 01:59:41 29° SSE 02:01:28 49° E 02:05:31 10° NNE
Cosmos 2322 Rocket 3.4 01:58:12 10° NNW 02:03:33 42° NE 02:08:52 10° ESE
Genesis I 3.8 01:59:58 10° NW 02:03:40 37° WSW 02:03:56 37° SW
Cosmos 2151 2.9 02:02:07 37° S 02:03:46 85° E 02:08:03 10° N
Cosmos 783 Rocket 4.4 01:59:55 10° NNW 02:05:14 82° WSW 02:08:31 24° SSE
Cosmos 371 Rocket 4.1 02:01:59 10° NNW 02:06:45 51° ENE 02:11:27 10° SE
Abrixas 4.0 02:08:09 25° ESE 02:08:09 25° ESE 02:10:02 10° E
Lacrosse 5 rocket 2.1 02:03:44 10° NW 02:07:58 58° NNE 02:12:24 10° ESE
Cosmos 405 3.0 02:08:24 10° NNW 02:11:59 67° W 02:12:59 43° SSW
Cosmos 1538 Rocket 4.5 02:08:44 10° NNW 02:13:54 61° ENE 02:19:06 10° SE
CZ-4C R/B 2.8 02:10:18 16° WSW 02:14:47 56° NW 02:21:02 10° NE
CENTAUR R/B 3.0 02:11:44 25° S 02:15:08 48° ESE 02:21:45 10° NE
Cosmos 1908 4.2 02:11:48 10° NNW 02:15:15 32° W 02:16:06 29° WSW
Nadezhda 1 Rocket 4.3 02:09:07 10° N 02:15:18 65° ENE 02:20:27 15° SSE
NOSS 3-2 (C) 3.9 02:10:38 16° WSW 02:15:42 63° NW 02:22:36 10° NE
Sich 1 3.7 02:15:33 24° SSE 02:17:56 49° E 02:22:14 10° NNE
PSLV R/B 3.8 02:17:30 10° NNE 02:22:10 71° ESE 02:24:32 28° S
Cosmos 1437 Rocket 3.7 02:23:25 10° NNW 02:26:57 32° W 02:27:55 28° WSW
ASTEX 1 3.6 02:22:21 10° N 02:27:17 61° W 02:29:54 27° SSW
ISS -3.1 02:26:09 10° WNW 02:29:26 72° NNE 02:32:42 10° E
SL-23 DEB 3.8 02:27:47 10° W 02:31:01 60° N 02:34:16 10° E
Cosmos 1300 2.7 02:28:55 10° NNW 02:32:44 64° W 02:34:21 32° SSW
ERS-2 2.7 02:29:22 10° NNE 02:33:01 50° E 02:34:52 25° SSE
Cosmos 1980 Rocket 2.3 02:28:43 10° NW 02:34:16 59° WSW 02:38:18 19° S
Cosmos 2360 Rocket 4.1 02:29:42 10° NNW 02:34:42 31° NE 02:39:40 10° ESE
Cosmos 1441 Rocket 4.3 02:36:10 23° WSW 02:37:53 34° WNW 02:41:32 10° N
CZ-2D R/B 4.4 02:38:06 10° NE 02:41:26 17° E 02:44:47 10° SE
ARIANE 5 R/B 4.4 02:41:32 10° NE 02:45:40 24° E 02:49:44 10° SE
NPP 3.9 02:42:10 10° NNE 02:47:34 66° ESE 02:51:32 18° S
BREEZE-M DEB (TANK) 4.3 02:38:25 10° WSW 02:52:41 66° S 02:56:57 10° E
Meteor 1-4 Rocket 2.9 02:50:47 10° N 02:54:31 69° ENE 02:57:48 13° SSE
Cosmos 2344 4.0 02:47:43 14° SW 02:54:38 70° NW 03:04:14 10° NE
Cosmos 1697 Rocket 3.7 02:50:09 10° NW 02:54:52 27° WSW 02:57:18 20° SW
Cosmos 332 Rocket 4.2 02:50:33 10° NW 02:55:06 44° WSW 02:57:58 21° SSW
Cosmos 2242 Rocket 3.7 02:51:52 10° NNW 02:56:12 56° W 02:58:53 22° SSW
Cosmos 2082 Rocket 3.0 02:52:29 16° WSW 02:56:45 44° NW 03:02:12 10° NNE
Cosmos 1455 2.5 02:56:24 10° N 03:00:12 64° ENE 03:03:44 11° SSE
Cosmos 540 Rocket 4.3 02:55:44 10° NW 03:00:17 32° WSW 03:02:51 20° SSW
COS B Rocket 4.4 03:01:09 10° NW 03:02:21 13° WNW 03:02:21 13° WNW
SL-08 R/B 3.4 03:00:52 17° S 03:04:33 62° WSW 03:09:28 10° NNW
Cosmos 1805 Rocket 4.4 03:02:33 20° SW 03:05:05 38° WNW 03:09:17 10° N
Meteor 2-10 4.0 03:01:23 10° NNW 03:06:35 77° W 03:11:41 11° S
Cosmos 1726 3.0 03:04:03 10° NNW 03:07:23 33° W 03:09:01 22° SW
Cosmos 1833 Rocket 3.4 03:03:26 15° WSW 03:07:47 45° NW 03:13:13 10° NNE
Cosmos 2181 Rocket 4.1 03:05:36 10° N 03:11:47 79° E 03:17:58 10° SSE
Cosmos 1633 Rocket 3.5 03:11:09 20° SW 03:13:59 49° WNW 03:18:19 10° N
Cosmos 1869 3.3 03:13:35 10° N 03:17:34 85° E 03:21:33 10° S
ATLAS 5 CENTAUR R/B 3.7 03:14:18 10° SSE 03:18:04 22° ESE 03:22:02 10° ENE
USA 215 3.3 03:13:00 10° ENE 03:19:33 73° SE 03:25:17 14° SW
Cosmos 1437 4.1 03:17:54 19° WSW 03:19:37 29° WNW 03:22:36 10° N
SL-14 R/B 4.0 03:17:57 19° SW 03:20:14 38° WNW 03:23:52 10° N
IRS-1C 4.2 03:15:27 10° NNE 03:20:50 85° ESE 03:25:33 14° SSW
Cosmos 2112 Rocket 4.3 03:16:16 10° NNW 03:21:29 71° ENE 03:26:39 10° SSE
Cosmos 1666 Rocket 4.5 03:19:17 17° SW 03:22:01 34° WNW 03:26:00 10° N
Lacrosse 5 2.9 03:19:28 10° WNW 03:23:26 23° SW 03:27:10 11° S
Cosmos 1703 Rocket 4.2 03:20:24 10° N 03:24:44 56° ENE 03:28:59 10° SSE
ATLAS CENTAUR R/B 3.4 03:22:12 10° NNW 03:26:46 38° NE 03:31:01 10° ESE
Cosmos 1626 2.1 03:28:26 14° S 03:31:35 87° ESE 03:35:23 10° N
Cosmos 1470 Rocket 3.7 03:28:50 16° SSW 03:32:22 62° WNW 03:36:47 10° N
Cosmos 1703 3.8 03:30:07 17° SW 03:32:57 46° WNW 03:36:48 10° N
SL-16 R/B 2.4 03:29:11 10° NW 03:34:42 52° WSW 03:40:10 10° S
Cosmos 1933 Rocket 3.8 03:33:32 15° SSW 03:37:04 57° WNW 03:41:27 10° N
Resurs 1-4 Rocket 3.0 03:33:03 10° NNE 03:38:13 48° E 03:43:22 10° S
USA 161 1.7 03:37:13 19° SSW 03:38:29 35° W 03:40:44 10° NNW
Cosmos 1271 Rocket 3.5 03:38:23 10° NNW 03:41:51 34° W 03:44:48 13° SSW
Cosmos 1933 3.4 03:38:49 10° N 03:42:53 85° E 03:46:55 10° S
Abrixas 2.5 03:40:12 11° WSW 03:43:10 70° S 03:46:15 10° E
Cosmos 968 Rocket 3.7 03:39:08 14° SW 03:43:31 58° WNW 03:48:37 10° NNE
BREEZE-M DEB (TANK) 1.8 03:39:03 10° W 03:43:40 61° SSW 03:45:59 10° ESE
EO 1 Del DPAF 3.3 03:42:51 10° S 03:46:44 65° WSW 03:50:39 10° NNW
USA 129 1.0 03:46:07 17° SSE 03:46:56 59° ENE 03:48:17 10° N
Lacrosse 5 rocket 2.1 03:43:09 10° WNW 03:47:10 36° SW 03:51:18 10° SSE
SL-16 R/B 2.6 03:40:58 10° SSE 03:47:14 81° WSW 03:53:34 10° NNW
Cosmos 1346 3.6 03:44:26 10° S 03:47:27 57° E 03:50:29 10° NNE
Cosmos 2292 Rocket 2.8 03:44:37 12° S 03:47:28 83° W 03:51:13 10° N
Cosmos 2322 Rocket 2.7 03:42:25 10° NW 03:47:36 39° WSW 03:52:44 10° S
Cosmos 2074 Rocket 4.5 03:43:36 10° S 03:49:42 62° E 03:55:53 10° NNE
Spot 4 Rocket 4.1 03:49:15 10° N 03:54:23 69° WNW 03:59:29 10° SSW
Okean 1-7 3.3 03:51:43 10° N 03:56:09 74° E 04:00:31 10° SSE
Cosmos 2219 Rocket 4.2 03:52:54 10° NNW 03:57:59 34° NE 04:03:02 10° ESE
Cosmos 923 Rocket 4.5 03:54:37 10° NW 03:59:34 41° WSW 04:04:25 10° S
Okean O Rocket 3.1 03:56:23 10° NNE 04:00:28 34° E 04:04:30 10° SSE
Cosmos 304 Rocket 4.0 03:58:42 10° NNW 04:03:24 52° WSW 04:08:05 10° S
CZ-4C R/B 4.3 03:59:46 10° WNW 04:04:44 26° NNW 04:10:13 10° NE
ISS -2.7 04:02:44 10° W 04:05:45 34° SSW 04:08:44 10° SE
CENTAUR R/B 3.3 03:59:34 10° WSW 04:05:50 51° NW 04:12:54 10° NE
ERS-2 4.2 04:04:04 10° NNW 04:06:29 17° WNW 04:08:54 10° W
BREEZE-M DEB (TANK) 3.5 04:03:30 10° SW 04:06:56 62° SSE 04:18:32 10° ENE
Cosmos 1680 Rocket 3.9 04:04:23 10° NW 04:09:19 43° WSW 04:14:12 10° S
Cosmos 1709 Rocket 4.4 04:03:30 10° SSW 04:09:36 49° WNW 04:15:40 10° N
SME Rocket 3.6 04:05:43 10° SSE 04:12:02 86° WSW 04:16:26 10° NNW
Meteor 1-26 Rocket 4.2 04:11:28 10° NNW 04:17:04 77° W 04:22:34 10° S
Cosmos 2360 Rocket 2.3 04:13:31 10° NW 04:19:02 57° WSW 04:24:33 10° S
Cosmos 2221 Rocket 4.1 04:16:54 10° NNW 04:21:10 43° W 04:25:26 10° SSW
Cosmos 292 Rocket 4.3 04:16:39 10° NNW 04:21:30 68° ENE 04:26:16 10° SSE
CZ-2D R/B 2.1 04:16:54 10° NNE 04:22:09 79° WNW 04:27:25 10° SSW
